Presure
134 163 142 126 160 156 153 165 172 166 150 150 127 133 160 150 104 141 131 151 152 131 134 135 120 117 102 140 124 128 133 138 138 148 125 143 126 157 166 152 134 143 98 155 155 155 169 163 163
128 137 137 158 163 159 151 164 103 153 159 144 142 152 139 121 100 90 156 92 129 107 100 100 105 102 124 123 134 123 123 126 134 137 151 145 141 92 158 83 127 153 127 131 137 118 89 131 158
170 161 160 175 160 161 152 107 130 170 145 159 149 142 137 132 113 140 89 144 137 90 122 133 133 114 123 131 133 135 140 130 111 134 143 134 131 140 134 140 119 113 141 110 153 139 108 153 178
157 167 168 171 154 110 143 149 107 163 169 153 175 136 111 119 115 94 102 94 99 87 136 113 120 146 144 142 133 141 129 134 124 135 137 123 149 134 141 137 142 139 113 161 135 137 179 169 129
171 173 157 153 166 166 130 143 147 106 152 181 170 106 128 158 94 112 126 140 122 88 96 104 108 127 128 107 139 116 98 130 159 150 137 154 156 137 140 124 149 166 140 190 159 183 129 159 147
168 168 146 87 113 180 177 182 168 165 160 97 192 119 204 101 113 149 154 93 93 89 90 99 101 94 97 110 120 101 147 128 121 153 150 105 143 160 169 156 130 150 165 151 167 131 128 171 182
191 187 177 180 73 136 193 226 196 134 172 169 235 229 243 129 250 92 105 96 89 86 91 94 89 89 100 112 83 97 99 123 94 93 123 102 91 90 112 124 162 177 100 84 177 171 159 150 169
172 190 227 219 227 209 234 122 229 233 230 231 94 229 176 235 101 161 147 95 89 88 131 90 88 91 95 97 89 79 94 97 96 134 92 125 91 93 89 88 90 164 101 104 183 101 183 121 116
177 182 142 125 215 139 206 157 172 213 207 211 211 211 133 214 111 102 116 138 99 94 92 89 88 93 87 160 93 164 85 90 88 88 106 86 87 93 100 85 139 102 175 150 117 176 86 85 83
174 196 194 192 175 173 169 168 169 80 178 184 199 199 204 143 144 98 112 115 100 189 90 94 87 135 126 85 117 117 86 81 88 87 147 93 83 84 143 160 78 143 166 182 166 172 110 166 92
169 167 185 178 190 175 189 175 182 178 186 91 187 173 183 115 201 203 131 113 212 227 138 113 84 82 78 90 94 95 168 89 179 83 88 82 185 109 94 91 87 120 99 124 90 181 170 97 91
176 180 177 200 215 200 76 185 187 176 127 180 182 181 182 189 107 167 145 111 216 96 112 95 89 80 81 99 91 90 76 84 86 91 185 80 91 87 79 155 90 89 102 92 87 88 83 178 193
183 186 210 201 194 201 199 214 204 181 181 198 186 221 194 186 185 197 206 135 90 130 97 236 89 95 83 97 85 74 83 86 136 149 86 84 82 80 84 84 100 140 138 95 93 84 100 107 183
208 208 203 230 209 208 230 199 217 223 229 219 215 84 227 205 192 187 143 128 179 166 95 88 89 147 84 84 92 89 127 95 104 114 179 106 83 86 91 88 94 103 181 84 89 93 111 108 111
207 198 187 181 188 221 227 233 215 89 175 224 207 223 221 220 210 192 199 98 190 132 171 214 192 85 78 100 102 103 138 206 156 89 103 111 113 185 79 84 152 107 103 84 108 111 97 105 136
208 212 204 212 215 223 222 230 97 238 231 226 230 219 222 218 208 228 199 196 205 200 189 187 181 158 98 101 102 122 149 129 122 136 103 118 125 107 87 115 120 129 92 83 115 115 105 134 109
201 211 212 215 214 228 218 209 238 163 236 227 220 228 225 202 93 91 147 191 191 214 161 89 128 125 152 160 111 114 134 134 122 122 120 115 97 107 98 195 133 80 109 89 107 94 104 109 111
203 196 207 209 217 208 217 231 226 238 228 228 240 226 224 218 204 226 248 192 228 195 231 105 185 118 188 137 121 125 119 130 127 88 107 115 111 120 82 106 109 84 105 106 102 96 104 109 111
198 206 211 212 215 221 223 231 216 234 232 229 225 236 230 227 211 225 229 248 229 237 201 236 194 190 189 191 132 185 125 125 127 128 110 117 118 116 101 101 108 106 100 101 124 110 147 215 210
222 218 216 212 214 218 212 218 228 223 241 227 229 227 235 232 225 215 222 230 131 238 236 209 97 93 106 108 117 108 107 120 132 116 114 119 120 90 87 91 89 107 112 112 133 218 218 200 205
217 220 223 226 226 227 226 224 227 221 231 230 224 217 227 243 230 226 219 248 261 238 185 237 151 192 155 98 137 110 109 96 111 139 104 97 86 90 101 115 108 108 114 110 117 207 206 205 184
216 220 223 226 231 227 232 240 229 240 227 230 224 217 205 234 189 221 253 274 271 270 234 227 239 242 225 195 186 176 159 108 144 106 108 95 124 108 121 108 110 109 109 112 213 204 201 194 192
233 238 245 253 259 259 252 255 250 232 234 219 226 179 190 221 214 230 262 274 270 265 246 232 225 242 233 203 196 187 191 177 127 121 184 103 188 132 109 112 204 129 185 204 209 196 195 186 189
248 254 268 279 288 295 313 313 258 232 226 220 221 227 225 220 225 230 223 267 267 264 263 229 224 232 238 225 203 151 157 86 147 181 177 176 178 131 179 200 212 211 201 205 197 200 191 189 195
235 236 236 220 227 154 234 244 177 199 256 244 234 238 222 223 223 227 220 261 256 243 261 209 226 219 238 230 217 201 199 191 187 184 182 181 178 191 198 216 210 199 204 203 199 197 187 190 192
239 290 310 167 185 297 230 229 246 244 234 238 246 199 224 227 228 223 212 256 251 251 261 252 234 217 224 236 189 205 197 195 187 175 179 173 173 173 176 186 192 203 194 201 196 193 189 192 198
347 396 441 285 385 399 402 91 110 103 251 246 252 240 238 212 243 232 214 257 250 223 248 258 248 221 214 236 230 223 197 201 189 163 177 165 165 169 174 188 174 203 210 198 202 200 193 190 184
348 360 371 386 349 360 390 423 89 317 191 168 190 244 242 251 235 216 227 260 150 244 241 254 249 178 213 218 143 226 214 204 194 184 177 172 166 185 173 185 210 208 204 198 198 198 198 182 182
336 329 336 348 370 348 284 82 381 286 305 303 270 251 240 125 121 84 232 244 242 245 245 245 257 224 216 210 235 230 214 206 200 187 186 179 172 167 172 175 196 204 210 206 197 186 189 185 185
83 320 337 332 328 148 367 393 374 227 305 305 278 259 228 227 212 219 225 241 233 234 241 249 93 96 221 213 222 233 216 201 203 189 182 178 173 183 167 178 202 205 204 196 183 186 183 184 176
Wind_Speed
53 66 60 55 58 57 58 66 70 54 58 60 51 40 56 53 26 53 43 57 58 44 47 45 29 25 10 43 33 34 36 38 36 40 28 34 30 45 51 48 39 42 12 48 48 49 53 53 56
50 54 63 56 61 61 64 60 31 58 56 61 49 50 61 35 27 25 64 18 38 20 15 10 14 13 32 29 41 32 29 32 37 38 48 38 38 8 54 3 30 52 32 35 40 29 12 40 57
74 65 62 76 69 70 66 39 58 64 52 64 62 56 56 52 33 55 20 59 46 14 33 42 44 24 30 40 41 43 45 37 15 38 43 38 34 41 41 42 31 26 47 26 52 48 30 56 59
61 70 72 81 68 39 64 61 38 60 64 66 65 64 38 40 36 29 31 19 22 17 51 25 26 55 55 49 41 47 34 41 30 40 39 32 49 42 45 42 45 43 25 55 44 43 61 52 37
74 78 75 71 79 82 57 60 64 38 69 79 64 38 59 61 34 36 46 56 42 17 17 15 16 38 36 13 45 24 7 37 61 55 41 56 55 41 46 31 50 62 46 66 58 65 36 50 53
68 70 68 36 46 87 78 77 69 70 69 41 86 41 88 38 41 64 65 28 26 20 17 18 13 12 10 16 24 9 52 33 22 57 55 14 47 62 67 57 39 50 63 51 63 40 39 61 66
90 89 83 91 30 60 71 66 83 58 65 61 68 69 65 58 66 30 36 33 26 22 21 20 18 17 15 22 8 10 9 29 3 3 31 11 5 7 22 33 58 71 23 18 63 63 59 53 65
57 87 56 64 68 82 66 35 63 60 62 58 39 59 50 64 42 73 50 35 31 26 55 24 23 21 17 18 13 8 10 11 9 41 6 31 9 12 12 14 18 55 23 26 68 29 70 43 41
67 59 54 38 69 41 52 42 44 56 58 56 56 58 46 62 50 42 51 47 35 34 29 27 23 20 17 68 16 68 14 10 9 9 22 9 11 15 19 17 47 25 67 53 35 67 31 31 31
66 65 74 68 66 53 43 47 48 22 52 51 54 57 59 39 44 40 50 49 38 68 33 32 27 50 43 17 35 37 19 16 16 15 52 17 13 17 50 62 19 53 63 73 64 66 38 70 38
65 62 71 67 73 61 62 50 52 56 62 33 53 54 56 36 64 64 48 46 67 74 51 42 29 23 21 25 22 24 68 24 72 18 20 16 75 30 24 25 25 39 30 44 26 76 71 38 40
66 70 67 74 69 67 15 60 61 59 48 58 57 56 56 58 48 58 54 47 69 37 41 39 36 29 28 30 27 26 19 25 24 27 78 21 26 24 23 59 30 30 36 33 34 37 32 72 77
77 76 69 74 74 72 68 67 67 65 68 66 58 66 63 59 60 65 68 51 41 47 39 66 38 39 33 35 28 20 28 27 49 55 25 24 26 24 27 30 35 58 56 35 40 37 44 43 72
61 64 71 57 72 70 63 60 63 63 66 66 62 39 65 67 66 65 54 57 60 59 44 43 41 49 34 32 39 35 50 36 36 44 65 35 31 33 33 33 36 42 77 39 44 46 43 44 49
64 73 76 65 68 64 64 60 64 41 50 63 66 63 61 66 68 64 68 37 70 58 57 68 58 36 27 41 41 45 51 73 58 35 41 42 40 75 32 36 61 43 41 40 46 47 46 47 57
67 65 72 69 64 60 61 54 31 59 59 59 62 64 63 63 60 65 69 71 76 74 58 54 61 56 41 43 46 50 54 49 48 49 41 45 42 41 36 47 50 53 45 38 49 50 50 58 56
71 69 68 66 68 62 62 61 58 42 56 59 62 62 64 64 36 34 52 70 70 77 62 41 49 61 57 57 52 48 53 53 49 50 47 45 37 44 38 77 55 37 48 43 49 51 54 56 60
73 68 72 71 71 71 66 52 58 58 60 58 56 63 65 65 65 65 61 59 71 72 76 33 61 60 66 56 57 56 51 52 51 36 44 47 45 46 40 45 48 45 51 51 54 55 57 61 64
73 75 74 76 75 74 66 58 57 61 58 58 59 58 61 63 65 61 61 64 70 71 73 73 73 68 64 60 60 54 52 51 52 52 47 50 51 49 49 50 51 52 56 57 64 59 66 60 59
77 80 80 79 78 73 67 57 60 56 59 58 59 59 58 61 63 64 61 64 47 71 71 61 35 37 44 50 56 46 45 50 49 50 49 52 52 46 46 52 52 56 56 59 61 59 55 61 58
80 82 82 83 85 82 79 67 66 59 58 58 58 63 60 56 62 63 62 56 60 69 60 70 49 66 60 47 56 47 49 44 47 51 47 48 45 49 53 59 59 59 60 61 67 58 58 57 61
79 84 87 87 88 84 87 76 70 71 62 60 61 65 68 59 46 55 54 46 51 56 69 69 67 67 72 73 63 63 50 48 51 49 47 52 52 59 67 62 61 60 63 65 56 61 60 59 59
89 90 92 95 96 93 85 84 66 65 64 64 64 65 69 67 57 63 52 50 50 55 64 69 68 65 67 74 74 64 65 54 59 49 56 58 55 60 63 64 54 60 62 58 56 61 59 64 65
88 92 95 95 85 78 76 85 64 68 70 71 68 67 68 69 66 62 62 48 51 54 54 69 68 65 64 70 74 61 56 45 55 58 58 58 56 61 57 54 53 55 58 58 61 60 63 66 69
72 75 73 68 71 40 68 75 29 67 70 77 77 74 72 71 68 63 64 49 52 52 52 58 68 66 63 68 71 67 65 64 62 61 61 60 59 55 52 52 54 58 59 61 63 64 66 68 70
82 100 102 47 55 103 78 59 60 62 70 71 81 62 72 70 70 64 65 53 53 52 49 54 66 66 65 64 56 67 66 66 63 59 61 61 60 59 60 60 60 60 62 64 66 68 68 70 74
65 51 38 37 44 55 66 20 20 9 68 80 82 82 74 72 67 63 62 53 53 49 51 51 58 67 66 63 65 63 66 65 64 56 63 56 55 57 62 62 65 61 65 66 71 72 71 72 73
43 38 36 43 57 57 49 47 8 65 48 39 52 82 74 61 63 62 54 53 36 54 53 49 55 53 67 66 41 62 61 64 65 66 63 63 58 62 64 65 61 62 66 69 72 73 76 75 78
33 40 40 38 35 41 29 15 51 70 77 77 83 75 72 34 32 25 49 48 49 52 52 50 51 66 68 66 61 61 59 61 63 64 64 65 63 60 66 67 62 63 67 70 72 72 76 79 82
13 27 38 41 30 10 36 19 36 59 75 73 73 69 75 64 66 60 52 50 49 47 46 49 38 33 68 66 61 59 58 61 60 63 64 65 65 66 63 69 63 65 68 69 72 76 79 83 86
Wind_Direction
247 261 253 246 258 251 249 266 268 260 249 230 243 247 239 241 237 234 238 247 245 227 234 242 228 229 241 256 245 250 258 264 267 276 267 271 270 281 276 281 279 281 285 280 283 280 283 280 279
247 252 241 255 263 253 262 257 232 235 244 238 254 246 231 245 237 225 246 219 240 227 231 232 241 253 241 251 250 251 252 257 261 267 282 267 269 254 283 294 279 279 285 285 282 287 310 285 278
262 260 260 264 257 257 258 252 242 262 246 242 244 234 236 246 228 236 224 238 234 216 245 241 242 241 243 248 249 253 259 253 272 262 274 275 266 268 281 272 277 285 281 289 280 279 293 277 283
248 262 263 264 249 241 239 255 236 250 259 238 257 240 240 237 239 226 234 225 230 224 246 247 250 251 251 252 251 254 257 258 261 264 265 273 276 270 270 271 274 277 287 282 281 289 287 287 285
259 263 260 259 258 260 245 250 243 250 239 261 248 237 247 244 225 242 248 252 242 230 241 249 242 248 249 244 255 252 235 264 271 272 266 279 279 275 274 277 279 283 276 283 278 286 286 284 281
257 257 250 257 246 261 257 263 252 258 250 248 263 250 259 224 236 242 238 220 216 221 236 246 239 212 199 255 260 237 264 265 269 271 273 287 279 280 281 281 282 279 284 276 284 290 283 285 295
259 258 262 264 261 252 262 256 266 250 254 252 251 252 246 244 246 226 236 221 221 221 223 220 218 225 238 243 229 246 236 265 210 260 273 270 295 310 287 279 279 277 296 311 286 285 278 280 283
249 262 249 248 248 262 248 249 249 248 249 248 242 249 244 246 225 244 238 221 222 225 253 216 222 225 224 231 242 247 243 221 221 270 235 273 297 299 303 308 304 284 297 296 287 302 291 294 297
258 248 249 235 252 257 250 253 255 251 255 253 250 250 241 252 232 237 240 240 228 230 233 223 228 235 235 256 239 256 257 235 241 253 277 283 289 285 285 300 284 291 282 285 290 288 309 312 314
255 256 259 255 249 254 246 252 251 285 254 255 253 254 252 252 246 232 237 240 232 248 229 230 228 248 250 249 250 255 251 274 254 251 262 269 284 290 274 276 307 284 282 285 288 286 297 293 304
253 254 259 262 262 250 264 253 261 258 260 249 255 245 252 249 252 253 241 237 250 244 249 230 229 247 257 233 240 242 254 249 258 265 257 279 267 273 282 287 292 285 289 287 301 287 290 301 299
255 257 258 256 254 252 242 261 259 256 255 254 258 253 255 257 241 247 246 237 250 228 227 226 228 241 248 249 237 242 283 262 261 257 266 277 275 279 290 276 292 294 286 298 302 302 306 290 294
256 258 251 255 259 256 257 257 257 258 257 260 259 248 259 259 261 260 254 242 230 240 229 248 229 230 245 245 248 274 257 264 261 263 265 267 276 285 286 290 286 280 280 297 297 302 301 301 293
249 255 257 258 254 256 256 255 256 254 252 257 254 239 244 253 258 249 244 239 254 251 231 233 233 238 240 249 244 259 254 252 262 264 268 268 275 280 278 286 286 283 279 302 298 298 297 303 305
249 250 255 258 261 257 255 260 255 244 247 252 254 253 250 246 250 254 252 239 256 241 252 251 256 237 252 251 256 250 259 260 260 261 269 273 272 268 284 284 276 283 290 298 295 294 297 302 295
254 253 250 256 257 258 259 261 248 257 254 251 253 253 251 250 246 249 249 253 248 255 250 249 249 253 249 248 258 258 260 259 258 262 270 269 273 274 280 277 279 279 289 295 294 296 298 296 302
254 257 257 260 257 263 256 257 265 262 256 251 250 251 249 246 235 239 245 250 253 246 249 237 248 245 254 254 258 257 257 259 259 262 265 270 277 275 283 272 279 291 291 291 294 290 298 300 301
254 256 258 258 262 253 256 261 259 265 258 255 254 251 252 250 247 250 248 245 249 252 246 257 253 250 253 254 255 256 259 258 260 260 266 271 274 275 280 280 283 288 288 290 291 289 296 298 299
256 256 259 261 259 262 260 263 253 268 261 260 256 255 252 252 251 251 250 247 248 249 249 246 251 254 256 257 252 259 259 261 261 261 272 269 270 272 276 279 284 286 287 288 297 294 295 278 277
257 255 257 259 260 260 258 257 262 262 261 255 256 257 256 253 250 250 249 250 239 246 248 245 241 245 251 253 255 258 261 263 263 266 271 271 270 275 279 279 284 284 289 292 289 275 276 279 278
257 257 258 259 260 261 261 261 264 259 261 254 252 252 254 254 252 249 247 248 244 243 242 247 242 245 247 252 255 256 259 261 267 267 265 270 280 276 281 280 281 284 291 290 296 277 274 278 285
260 261 260 260 259 258 261 259 259 259 255 251 250 248 249 252 247 251 248 247 246 242 241 243 245 243 245 250 257 257 259 263 263 265 274 272 276 274 278 278 283 286 289 293 275 277 280 283 284
263 264 265 265 262 260 261 260 252 251 250 242 245 243 247 251 251 251 248 245 240 242 238 239 241 241 241 246 251 258 258 263 268 271 267 274 274 274 277 282 277 286 283 277 276 279 282 285 284
265 266 266 265 266 264 261 258 245 246 248 245 242 243 245 247 249 252 251 241 243 239 238 237 238 240 239 242 248 257 260 270 267 265 269 272 275 274 281 278 277 276 279 276 279 280 282 284 283
275 274 271 259 261 261 252 254 249 244 245 249 248 244 239 244 247 249 251 238 239 239 235 245 235 239 238 241 244 249 250 255 260 263 266 270 274 276 278 279 280 280 279 278 281 281 286 286 286
283 276 274 261 262 260 253 253 246 240 243 239 243 242 237 241 245 245 247 236 237 240 235 233 233 236 240 238 249 246 248 250 257 263 266 271 275 280 282 281 283 282 284 282 283 284 287 288 288
287 307 285 272 277 267 253 243 47 45 238 236 232 238 236 238 243 245 251 235 234 238 235 232 230 234 239 238 241 242 248 247 253 268 264 275 279 282 284 280 288 284 283 285 283 285 288 289 290
301 321 310 252 258 264 266 253 227 235 243 241 228 230 235 232 234 241 246 234 241 236 235 235 231 238 238 241 257 241 242 246 251 258 265 272 280 275 285 282 285 286 285 285 286 288 289 290 291
319 325 321 316 259 263 262 237 235 227 227 222 220 221 229 233 243 252 239 240 242 241 241 237 236 230 235 240 239 241 242 245 249 258 261 268 277 284 286 288 287 287 286 285 288 291 292 292 293
237 324 311 308 271 237 260 237 230 220 224 218 215 214 228 225 235 239 238 236 239 244 251 250 269 269 233 238 240 240 242 247 249 256 263 270 277 276 288 287 288 288 288 289 291 291 292 292 295